Istiklol

Tajikistan     40˚33′56″N   69˚38′30″E
temp.,
°C
wind,
m/s
gust,
m/s
humid.,
%
clouds,
%
prec.,
mm/h
press.,
hPa
HPBL,
m
29 november, sun
sun2923:00−5˚ne22430 0.0 104221
02:00−6˚ene33690 0.0 104124
05:00−5˚ene33590 0.0 104022
08:00−5˚ene33530 0.0 104025
11:00ese22680 0.0 1038205
14:00se22730 0.0 1035261
17:00−5˚ne12760 0.0 103621
20:00−4˚ene226461 0.0 103621
30 november, mon
mon3023:00−4˚ene225780 0.0 103621
02:00−4˚ene225299 0.0 103422
05:00−4˚ene334963 0.0 103424
08:00−3˚ene344833 0.0 103228
11:00+2˚e456665 0.0 1031177
14:00+2˚e3566100 0.0 1028167
17:00−1˚ene3443100 0.0 102728
20:00ene3345100 0.0 102827
1 december, tue
tue123:00−1˚ene2240100 0.0 102722
02:00−1˚ene2235100 0.0 102722
05:00+1˚e2244100 0.0 102623
08:00+1˚wnw0147100 0.1 102722
11:00+2˚ese2277100 0.3 102764
14:00+3˚e347197 0.0 1026112
17:00+3˚ene456699 0.0 102893
20:00+3˚ene457594 0.0 102989
2 december, wed
wed223:00+3˚ene557168 0.0 102874
02:00+2˚ene555286 0.0 102863
05:00+2˚ene554893 0.0 102848
08:00+4˚ene4552100 0.0 102860
11:00+5˚e5670100 0.0 1027146
14:00+6˚e4573100 0.0 1026123
17:00+4˚ne1259100 0.0 102523
20:00+5˚e2268100 0.1 102623
3 december, thu
thu323:00+5˚ne3479100 0.6 102538
02:00+5˚ene3476100 0.1 102443
05:00+4˚ene3481100 0.1 102445
08:00+4˚ene3381100 0.0 102443
11:00+5˚e4586100 0.0 1023158
14:00+6˚e1286100 0.0 1021115
17:00+4˚wsw0189100 0.6 102222
20:00+4˚ssw0188100 0.9 102123